FW5336 Weather Reports


Display with metric or nautical units.
time (UTC)temp
F
wind
direction
speed
MPH
gust
MPH
rain 1hr
in
rain 24hr
in
rain mn
in
humidity
%
barometer
mb
20260903201335 77 317 14.0 22.0 0.90 0.15 0.15 87 1018.5
20260903200833 84 308 1.0 2.0 0.00 0.00 0.00 76 1014.9
20260903200329 85 249 0.0 1.0 0.00 0.00 0.00 76 1014.3
20260903195824 85 227 0.0 1.0 0.00 0.00 0.00 75 1014.3
20260903195320 85 181 3.0 3.0 0.00 0.00 0.00 74 1014.2
20260903194815 86 248 1.0 1.0 0.00 0.00 0.00 74 1014.5
20260903194311 86 172 2.0 3.0 0.00 0.00 0.00 73 1014.0
20260903193806 87 170 3.0 3.0 0.00 0.00 0.00 71 1014.3
20260903193302 87 302 0.0 1.0 0.00 0.00 0.00 70 1014.3
20260903192757 88 256 1.0 1.0 0.00 0.00 0.00 68 1014.2
20260903192253 89 225 0.0 1.0 0.00 0.00 0.00 67 1014.3
20260903191749 89 191 0.0 2.0 0.00 0.00 0.00 67 1014.5
20260903191244 90 74 2.0 5.0 0.00 0.00 0.00 66 1015.1
20260903190738 89 260 0.0 1.0 0.00 0.00 0.00 65 1015.2
20260903190233 89 163 2.0 3.0 0.00 0.00 0.00 66 1015.2
20260903185728 90 200 2.0 2.0 0.00 0.00 0.00 64 1015.4
20260903185222 90 86 0.0 3.0 0.00 0.00 0.00 65 1015.4
20260903184719 89 158 3.0 3.0 0.00 0.00 0.00 67 1015.4
20260903184215 90 260 2.0 6.0 0.00 0.00 0.00 65 1015.5
20260903183714 88 267 1.0 2.0 0.00 0.00 0.00 67 1015.6
20260903183209 89 199 4.0 6.0 0.00 0.00 0.00 65 1015.8
20260903182708 89 181 2.0 6.0 0.00 0.00 0.00 67 1015.6
20260903182203 89 217 2.0 3.0 0.00 0.00 0.00 65 1015.6
20260903181701 87 232 2.0 6.0 0.00 0.00 0.00 68 1015.4
20260903181156 87 62 2.0 2.0 0.00 0.00 0.00 69 1015.5
20260903180651 87 123 1.0 6.0 0.00 0.00 0.00 70 1015.7
20260903180146 87 27 2.0 3.0 0.00 0.00 0.00 69 1015.5
20260903175644 85 144 4.0 6.0 0.00 0.00 0.00 71 1015.7
20260903175139 86 192 3.0 3.0 0.00 0.00 0.00 69 1015.8
20260903174633 85 230 1.0 3.0 0.00 0.00 0.00 70 1015.8
20260903174128 85 316 1.0 2.0 0.00 0.00 0.00 70 1016.0
20260903173623 84 150 3.0 3.0 0.00 0.00 0.00 72 1016.0
20260903173120 84 207 2.0 5.0 0.00 0.00 0.00 72 1016.0
20260903172619 84 134 2.0 2.0 0.00 0.00 0.00 69 1016.0
20260903172115 84 135 2.0 3.0 0.00 0.00 0.00 71 1016.0
20260903171615 83 209 1.0 3.0 0.00 0.00 0.00 72 1015.9
20260903171111 84 155 4.0 5.0 0.00 0.00 0.00 71 1015.9
20260903170609 84 325 1.0 2.0 0.00 0.00 0.00 71 1015.8
20260903170105 82 133 2.0 3.0 0.00 0.00 0.00 76 1015.8
20260903165602 80 168 1.0 2.0 0.00 0.00 0.00 78 1016.2
20260903165058 80 209 1.0 3.0 0.00 0.00 0.00 79 1016.1
20260903164552 80 176 4.0 9.0 0.00 0.00 0.00 81 1016.4
20260903164048 80 226 1.0 2.0 0.00 0.00 0.00 83 1016.7
20260903163543 79 31 0.0 2.0 0.00 0.00 0.00 86 1017.2
20260903163039 79 246 1.0 3.0 0.00 0.00 0.00 86 1017.4
20260903162535 80 295 3.0 3.0 0.00 0.00 0.00 88 1017.3
20260903162031 80 279 1.0 2.0 0.00 0.00 0.00 89 1017.4
20260903161526 79 297 2.0 3.0 0.00 0.00 0.00 90 1017.7
20260903161022 79 316 2.0 3.0 0.00 0.00 0.00 90 1017.5
20260903160520 79 287 2.0 2.0 0.00 0.00 0.00 90 1017.6
20260903160016 79 308 4.0 6.0 0.00 0.00 0.00 91 1017.8
20260903155514 79 296 2.0 2.0 0.00 0.00 0.00 91 1017.7
20260903155010 79 272 1.0 1.0 0.00 0.00 0.00 91 1017.0
20260903154506 79 254 0.0 0.0 0.00 0.00 0.00 91 1017.1
20260903154002 79 253 0.0 1.0 0.00 0.00 0.00 90 1017.0
20260903153457 79 253 0.0 0.0 0.00 0.00 0.00 90 1016.7
20260903152953 79 208 0.0 1.0 0.00 0.00 0.00 89 1016.5
20260903152449 80 256 0.0 1.0 0.00 0.00 0.00 89 1016.6
20260903151945 80 252 0.0 1.0 0.00 0.00 0.00 88 1016.5
20260903151438 80 274 2.0 2.0 0.00 0.00 0.00 87 1016.6
20260903150933 80 279 1.0 3.0 0.00 0.00 0.00 87 1016.7
20260903150428 80 294 1.0 1.0 0.00 0.00 0.00 87 1016.2
20260903145923 81 252 1.0 1.0 0.00 0.00 0.00 85 1016.3
20260903145418 81 239 0.0 1.0 0.00 0.00 0.00 85 1016.1
20260903144918 81 226 0.0 1.0 0.00 0.00 0.00 84 1016.3
20260903144418 81 259 1.0 1.0 0.00 0.00 0.00 83 1016.5
20260903143914 82 249 1.0 1.0 0.00 0.00 0.00 83 1016.4
20260903143410 82 306 0.0 0.0 0.00 0.00 0.00 83 1016.4
20260903142905 81 275 0.0 1.0 0.00 0.00 0.00 83 1016.4
20260903142401 82 263 1.0 1.0 0.00 0.00 0.00 82 1016.3
20260903141857 82 252 0.0 1.0 0.00 0.00 0.00 82 1016.2
20260903141352 82 257 0.0 1.0 0.00 0.00 0.00 81 1016.2
20260903140848 83 254 2.0 2.0 0.00 0.00 0.00 80 1016.1
20260903140343 83 240 1.0 1.0 0.00 0.00 0.00 80 1016.2
20260903135838 83 275 0.0 1.0 0.00 0.00 0.00 80 1016.1
20260903135334 85 256 1.0 2.0 0.00 0.00 0.00 77 1016.3
20260903134832 84 277 2.0 2.0 0.00 0.00 0.00 77 1016.3
20260903134328 84 262 0.0 1.0 0.00 0.00 0.00 78 1016.5
20260903133825 83 243 0.0 1.0 0.00 0.00 0.00 79 1016.3
20260903133322 84 243 1.0 1.0 0.00 0.00 0.00 76 1016.2
20260903132816 84 234 0.0 1.0 0.00 0.00 0.00 76 1016.3
20260903132312 83 181 1.0 2.0 0.00 0.00 0.00 77 1016.5
20260903131807 82 249 1.0 2.0 0.00 0.00 0.00 79 1016.4
20260903131306 82 262 1.0 1.0 0.00 0.00 0.00 79 1016.3
20260903130801 82 160 2.0 2.0 0.00 0.00 0.00 78 1016.6
20260903130255 81 223 1.0 1.0 0.00 0.00 0.00 80 1016.4
20260903125754 82 315 0.0 2.0 0.00 0.00 0.00 79 1016.5
20260903125249 81 236 0.0 1.0 0.00 0.00 0.00 79 1016.4
20260903124748 80 189 1.0 1.0 0.00 0.00 0.00 80 1016.5
20260903124244 81 260 1.0 2.0 0.00 0.00 0.00 80 1016.7
20260903123742 80 228 1.0 2.0 0.00 0.00 0.00 80 1016.9
20260903123242 80 246 0.0 1.0 0.00 0.00 0.00 79 1016.7
20260903122741 80 241 0.0 1.0 0.00 0.00 0.00 79 1016.6
20260903122236 80 228 0.0 0.0 0.00 0.00 0.00 79 1017.1
20260903121734 79 239 0.0 1.0 0.00 0.00 0.00 80 1016.7
20260903121230 78 229 0.0 1.0 0.00 0.00 0.00 81 1016.5
20260903120731 77 236 0.0 0.0 0.00 0.00 0.00 83 1016.7
20260903120230 76 268 0.0 0.0 0.00 0.00 0.00 85 1016.7
20260903115723 75 250 0.0 0.0 0.00 0.00 0.00 87 1016.7
20260903115218 75 230 0.0 1.0 0.00 0.00 0.00 88 1016.7
20260903114713 74 246 0.0 0.0 0.00 0.00 0.00 88 1016.7
20260903114209 74 246 0.0 0.0 0.00 0.00 0.00 88 1016.6
20260903113709 74 246 0.0 0.0 0.00 0.00 0.00 88 1016.5
20260903113205 74 246 0.0 0.0 0.00 0.00 0.00 88 1016.5
20260903112701 74 244 0.0 0.0 0.00 0.00 0.00 88 1016.5
20260903112156 73 242 0.0 0.0 0.00 0.00 0.00 88 1016.5
20260903111655 73 240 0.0 0.0 0.00 0.00 0.00 88 1016.4
20260903111150 73 238 0.0 0.0 0.00 0.00 0.00 88 1016.5
20260903110647 73 229 0.0 0.0 0.00 0.00 0.00 88 1016.5
20260903110143 73 229 0.0 1.0 0.00 0.00 0.00 88 1016.2
20260903105636 73 228 0.0 0.0 0.00 0.00 0.00 89 1016.2
20260903105132 73 232 0.0 0.0 0.00 0.00 0.00 88 1016.1
20260903104631 73 229 0.0 0.0 0.00 0.00 0.00 88 1016.1
20260903104127 73 235 0.0 0.0 0.00 0.00 0.00 88 1016.0
20260903103622 73 235 0.0 0.0 0.00 0.00 0.00 87 1016.1
20260903103119 74 239 0.0 0.0 0.00 0.00 0.00 87 1016.1
20260903102614 74 239 0.0 0.0 0.00 0.00 0.00 87 1016.2
20260903102113 74 242 0.0 0.0 0.00 0.00 0.00 87 1016.3
20260903101607 74 241 0.0 0.0 0.00 0.00 0.00 87 1016.1
20260903101103 74 241 0.0 0.0 0.00 0.00 0.00 86 1016.1
20260903100603 74 239 0.0 0.0 0.00 0.00 0.00 86 1016.2
20260903095600 74 235 0.0 0.0 0.00 0.00 0.00 86 1016.1
20260903095054 74 235 0.0 0.0 0.00 0.00 0.00 85 1016.0
20260903094549 74 234 0.0 0.0 0.00 0.00 0.00 85 1015.9
20260903094045 75 233 0.0 0.0 0.00 0.00 0.00 85 1016.0
20260903093545 74 221 0.0 1.0 0.00 0.00 0.00 85 1016.1
20260903093040 75 234 0.0 0.0 0.00 0.00 0.00 84 1015.9
20260903092539 75 233 0.0 0.0 0.00 0.00 0.00 84 1016.0
20260903092034 75 232 0.0 0.0 0.00 0.00 0.00 84 1016.0
20260903091532 75 229 0.0 0.0 0.00 0.00 0.00 83 1015.7
20260903091027 75 229 0.0 0.0 0.00 0.00 0.00 83 1015.6
20260903090523 75 234 0.0 0.0 0.00 0.00 0.00 83 1015.8
20260903090022 75 239 0.0 0.0 0.00 0.00 0.00 83 1015.8
20260903085520 75 232 0.0 1.0 0.00 0.00 0.00 83 1015.7
20260903085016 75 239 0.0 0.0 0.00 0.00 0.00 83 1015.8
20260903084514 75 239 0.0 1.0 0.00 0.00 0.00 83 1015.8
20260903084009 76 239 0.0 0.0 0.00 0.00 0.00 82 1015.7
20260903083505 76 249 0.0 2.0 0.00 0.00 0.00 83 1016.0
20260903083004 76 229 0.0 1.0 0.00 0.00 0.00 82 1015.6
20260903082459 76 229 0.0 1.0 0.00 0.00 0.00 82 1015.8
20260903081954 76 242 0.0 1.0 0.00 0.00 0.00 82 1015.8
20260903081449 76 239 0.0 0.0 0.00 0.00 0.00 82 1015.8
20260903080945 76 241 0.0 2.0 0.00 0.00 0.00 82 1015.8
20260903080441 77 235 0.0 1.0 0.00 0.00 0.00 82 1015.7
20260903075931 76 188 2.0 2.0 0.00 0.00 0.00 82 1015.8
20260903075427 77 239 0.0 2.0 0.00 0.00 0.00 82 1016.0
20260903074921 77 241 0.0 5.0 0.00 0.00 0.00 81 1016.3
20260903074414 76 316 4.0 5.0 0.00 0.00 0.00 82 1016.4
20260903073910 76 307 1.0 1.0 0.00 0.00 0.00 82 1015.7
20260903073405 76 234 0.0 1.0 0.00 0.00 0.00 81 1015.5
20260903072901 76 229 1.0 1.0 0.00 0.00 0.00 81 1015.8
20260903072356 76 232 0.0 0.0 0.00 0.00 0.00 81 1016.0
20260903071854 76 239 0.0 0.0 0.00 0.00 0.00 81 1016.2
20260903071349 76 209 0.0 0.0 0.00 0.00 0.00 81 1016.2
20260903070844 76 236 0.0 0.0 0.00 0.00 0.00 81 1015.8
20260903070339 76 164 2.0 2.0 0.00 0.00 0.00 81 1016.1
20260903065834 76 355 1.0 1.0 0.00 0.00 0.00 80 1016.4
20260903065333 76 241 0.0 0.0 0.00 0.00 0.00 80 1016.1
20260903064833 75 292 0.0 1.0 0.00 0.00 0.00 80 1016.0
20260903064328 75 235 0.0 1.0 0.00 0.00 0.00 81 1015.6
20260903063824 75 276 1.0 1.0 0.00 0.00 0.00 82 1015.5
20260903063318 75 237 0.0 0.0 0.00 0.00 0.00 82 1015.1
20260903062809 75 232 0.0 1.0 0.00 0.00 0.00 82 1015.0
20260903062308 75 234 0.0 0.0 0.00 0.00 0.00 82 1015.3
20260903061805 75 239 0.0 0.0 0.00 0.00 0.00 82 1015.2
20260903061304 75 239 0.0 0.0 0.00 0.00 0.00 82 1015.4
20260903060800 75 235 0.0 0.0 0.00 0.00 0.00 82 1015.4
20260903060300 75 229 0.0 0.0 0.00 0.00 0.00 81 1015.5
20260903055757 75 229 0.0 1.0 0.00 0.00 0.00 81 1015.6
20260903055256 75 242 0.0 0.0 0.00 0.00 0.00 80 1015.7
20260903054751 76 242 0.0 0.0 0.00 0.00 0.00 80 1015.9
20260903054245 76 241 0.0 1.0 0.00 0.00 0.00 80 1015.9
20260903053742 76 245 1.0 1.0 0.00 0.00 0.00 79 1015.8
20260903053242 76 242 0.0 1.0 0.00 0.00 0.00 79 1015.8
20260903052738 75 239 0.0 1.0 0.00 0.00 0.00 80 1015.7
20260903052234 75 277 1.0 2.0 0.00 0.00 0.00 80 1015.6
20260903051728 75 241 0.0 1.0 0.00 0.00 0.00 80 1015.5
20260903051224 75 241 0.0 0.0 0.00 0.00 0.00 80 1015.4
20260903050720 75 239 0.0 0.0 0.00 0.00 0.00 80 1015.6
20260903050218 75 239 0.0 0.0 0.00 0.00 0.00 81 1015.2
20260903045713 75 218 1.0 1.0 0.00 0.00 0.00 80 1015.3
20260903045210 75 215 1.0 1.0 0.00 0.00 0.00 80 1015.4
20260903044705 75 242 0.0 1.0 0.00 0.00 0.00 80 1015.4
20260903044201 75 296 1.0 2.0 0.00 0.00 0.00 79 1015.7
20260903043658 75 355 3.0 6.0 0.00 0.00 0.00 78 1015.8
20260903043157 75 248 1.0 3.0 0.00 0.00 0.00 79 1015.9
20260903042656 75 277 2.0 5.0 0.00 0.00 0.00 79 1016.2
20260903042151 75 303 1.0 3.0 0.00 0.00 0.00 79 1016.3
20260903041648 75 268 0.0 2.0 0.00 0.00 0.00 79 1016.3
20260903041143 75 276 1.0 8.0 0.00 0.00 0.00 79 1016.3
20260903040642 75 86 3.0 8.0 0.00 0.00 0.00 78 1016.4
20260903040138 76 314 4.0 14.0 0.00 0.00 0.00 78 1016.5
20260903035634 76 314 4.0 8.0 0.00 0.00 0.00 76 1017.0
20260903035130 76 312 5.0 8.0 0.00 0.00 0.00 75 1016.6
20260903034624 76 22 3.0 7.0 0.00 0.00 0.00 73 1016.6
20260903034119 77 61 4.0 8.0 0.00 0.00 0.00 72 1016.2
20260903033615 78 252 7.0 10.0 0.00 0.00 0.00 69 1016.5
20260903033109 78 201 4.0 10.0 0.00 0.00 0.00 66 1016.5
20260903032604 79 224 6.0 15.0 0.00 0.00 0.00 69 1016.7
20260903032059 82 288 11.0 18.0 0.00 0.00 0.00 67 1016.7
20260903031554 84 242 1.0 3.0 0.00 0.00 0.00 77 1015.3
20260903031049 84 255 0.0 2.0 0.00 0.00 0.00 76 1014.8
20260903030544 84 280 1.0 5.0 0.00 0.00 0.00 77 1014.5
20260903030041 84 249 4.0 6.0 0.00 0.00 0.00 77 1014.5
20260903025536 84 249 2.0 5.0 0.00 0.00 0.00 77 1014.1
20260903025032 84 242 3.0 3.0 0.00 0.00 0.00 77 1014.1
20260903024531 84 276 2.0 5.0 0.00 0.00 0.00 77 1014.0
20260903024025 84 232 0.0 2.0 0.00 0.00 0.00 77 1013.4
20260903023521 84 235 0.0 2.0 0.00 0.00 0.00 76 1013.5
20260903023017 84 242 0.0 2.0 0.00 0.00 0.00 76 1013.7
20260903022516 84 207 1.0 6.0 0.00 0.00 0.00 76 1014.1
20260903022014 85 241 0.0 2.0 0.00 0.00 0.00 75 1014.3
20260903021509 85 245 0.0 1.0 0.00 0.00 0.00 75 1014.7
20260903021004 85 239 0.0 1.0 0.00 0.00 0.00 75 1014.9
20260903020459 85 256 0.0 2.0 0.00 0.00 0.00 74 1014.8
20260903015954 85 252 0.0 1.0 0.00 0.00 0.00 74 1014.9
20260903015450 85 276 1.0 2.0 0.00 0.00 0.00 74 1014.7
20260903014950 85 230 1.0 1.0 0.00 0.00 0.00 73 1014.8
20260903014444 86 234 0.0 2.0 0.00 0.00 0.00 73 1014.8
20260903013939 86 256 2.0 2.0 0.00 0.00 0.00 72 1014.8
20260903013439 86 260 0.0 2.0 0.00 0.00 0.00 72 1014.7
20260903012938 86 255 1.0 2.0 0.00 0.00 0.00 72 1014.6
20260903012438 86 239 0.0 2.0 0.00 0.00 0.00 71 1014.7
20260903011936 86 266 0.0 2.0 0.00 0.00 0.00 71 1014.8
20260903011431 87 228 2.0 3.0 0.00 0.00 0.00 71 1014.6
20260903010926 87 233 0.0 2.0 0.00 0.00 0.00 70 1014.6
20260903010422 87 241 1.0 5.0 0.00 0.00 0.00 69 1014.4
20260903005920 87 241 1.0 2.0 0.00 0.00 0.00 69 1014.5
20260903005415 87 237 0.0 1.0 0.00 0.00 0.00 68 1014.2
20260903004912 87 247 1.0 2.0 0.00 0.00 0.00 68 1014.4
20260903004412 88 249 0.0 2.0 0.00 0.00 0.00 68 1014.2
20260903003907 88 291 2.0 5.0 0.00 0.00 0.00 67 1014.2
20260903003402 88 223 3.0 6.0 0.00 0.00 0.00 66 1013.9
20260903002901 88 248 1.0 1.0 0.00 0.00 0.00 66 1014.1
20260903002356 88 256 1.0 1.0 0.00 0.00 0.00 65 1014.1
20260903001851 89 252 1.0 2.0 0.00 0.00 0.00 64 1014.1
20260903001346 89 254 1.0 1.0 0.00 0.00 0.00 64 1014.0
20260903000846 89 247 1.0 3.0 0.00 0.00 0.00 63 1014.1
20260903000341 89 247 0.0 2.0 0.00 0.00 0.00 62 1014.2
20260902235839 90 272 2.0 3.0 0.00 0.00 0.00 62 1014.2
20260902235334 90 243 1.0 2.0 0.00 0.00 0.00 61 1014.4
20260902234834 90 229 2.0 6.0 0.00 0.00 0.00 60 1014.4
20260902234329 91 250 0.0 6.0 0.00 0.00 0.00 59 1014.5
20260902233827 91 279 1.0 3.0 0.00 0.00 0.00 59 1014.4
20260902233327 91 304 5.0 8.0 0.00 0.00 0.00 58 1014.3
20260902232825 92 233 2.0 2.0 0.00 0.00 0.00 58 1014.4
20260902232320 92 254 2.0 3.0 0.00 0.00 0.00 57 1014.5
20260902231815 92 254 0.0 0.0 0.00 0.00 0.00 57 1014.3
20260902231310 93 250 1.0 2.0 0.00 0.00 0.00 56 1014.2
20260902230805 93 224 0.0 2.0 0.00 0.00 0.00 55 1014.3
20260902230304 93 247 3.0 6.0 0.00 0.00 0.00 55 1014.2
20260902225759 93 276 3.0 8.0 0.00 0.00 0.00 54 1014.1
20260902225254 93 336 3.0 8.0 0.00 0.00 0.00 54 1014.1
20260902224752 93 261 1.0 3.0 0.00 0.00 0.00 53 1013.9
20260902224248 93 252 1.0 3.0 0.00 0.00 0.00 53 1014.0
20260902223744 93 172 1.0 7.0 0.00 0.00 0.00 53 1013.9
20260902223243 95 291 0.0 3.0 0.00 0.00 0.00 51 1014.0
20260902222737 95 263 6.0 9.0 0.00 0.00 0.00 50 1014.1
20260902222236 95 209 1.0 3.0 0.00 0.00 0.00 50 1014.0
20260902221731 95 258 3.0 5.0 0.00 0.00 0.00 49 1013.8
20260902221230 95 233 3.0 6.0 0.00 0.00 0.00 49 1013.9
20260902220726 95 345 3.0 6.0 0.00 0.00 0.00 50 1013.9
20260902220220 95 221 6.0 10.0 0.00 0.00 0.00 49 1014.0
20260902215716 95 279 2.0 5.0 0.00 0.00 0.00 49 1014.1
20260902215211 95 299 5.0 7.0 0.00 0.00 0.00 50 1014.0
20260902214706 95 261 1.0 5.0 0.00 0.00 0.00 49 1014.3
20260902214205 95 267 3.0 8.0 0.00 0.00 0.00 49 1014.2
20260902213701 96 271 1.0 6.0 0.00 0.00 0.00 49 1014.4
20260902213155 96 259 1.0 5.0 0.00 0.00 0.00 50 1014.2
20260902212650 96 265 2.0 3.0 0.00 0.00 0.00 49 1014.3
20260902212147 96 291 4.0 9.0 0.00 0.00 0.00 48 1014.3
20260902211642 96 243 6.0 9.0 0.00 0.00 0.00 48 1014.2
20260902211137 95 324 3.0 7.0 0.00 0.00 0.00 49 1014.3
20260902210636 97 277 1.0 3.0 0.00 0.00 0.00 48 1014.3
20260902210132 98 257 3.0 8.0 0.00 0.00 0.00 47 1014.3
20260902205630 96 267 1.0 1.0 0.00 0.00 0.00 49 1014.3
20260902205126 96 259 4.0 7.0 0.00 0.00 0.00 48 1014.3
20260902204620 97 260 2.0 3.0 0.00 0.00 0.00 47 1014.4
20260902204115 96 231 2.0 6.0 0.00 0.00 0.00 50 1014.5
20260902203611 96 322 4.0 8.0 0.00 0.00 0.00 50 1014.4
20260902203110 96 305 1.0 2.0 0.00 0.00 0.00 50 1014.4
20260902202606 97 252 1.0 8.0 0.00 0.00 0.00 49 1014.6
20260902202102 98 288 6.0 9.0 0.00 0.00 0.00 47 1014.8
20260902201558 96 263 1.0 5.0 0.00 0.00 0.00 50 1014.7